Regional Weather Roundup
Issued by NWS

Home | Current Version | Previous Version | Text Only | Print | Product List | Glossary Off
Versions: 1 2 3 4 5 6 7 8 9 10 11 12 13 14 15 16 17 18 19 20 21 22 23 24 25 26 27 28 29 30 31 32 33 34 35 36 37 38 39 40 41 42 43 44 45 46 47 48 49 50

000
ASUS45 KPSR 312300
RWRAZ

ARIZONA HOURLY REGIONAL WEATHER ROUNDUP
NATIONAL WEATHER SERVICE PHOENIX AZ
400 PM MST MON AUG 31 2015

NOTE: FAIR INDICATES FEW OR NO CLOUDS BELOW 12,000 FEET WITH NO
SIGNIFICANT WEATHER AND/OR OBSTRUCTIONS TO VISIBILITY.

AZZ001>003-036-010000-
NORTHWEST ARIZONA

CITY           SKY/WX    TMP DP  RH WIND       PRES   REMARKS
KINGMAN        FAIR      96  43  16 SW15G25   29.94F
$$

AZZ004>008-015-016-018-010000-
NORTH CENTRAL ARIZONA

CITY           SKY/WX    TMP DP  RH WIND       PRES   REMARKS
GRAND CANYON   FAIR      66  53  63 E3        30.25F
WILLIAMS       FAIR      72  57  60 NE13      30.28F
PRESCOTT       FAIR      86  52  30 S9        30.08F
FLAGSTAFF      FAIR      68  55  64 CALM      30.28F THUNDER
PAYSON         FAIR      86  54  32 SW14G22   30.10F
PAGE           FAIR      86  54  33 MISG      30.04F
$$

AZZ009>014-017-010000-
NORTHEAST ARIZONA

CITY           SKY/WX    TMP DP  RH WIND       PRES   REMARKS
WINSLOW        NOT AVBL
SAINT JOHNS    FAIR      78  52  40 W9        30.16F
WINDOW ROCK    FAIR      80  40  23 W13       30.23S
SHOW LOW       TSTM      57  50  77 NE12      30.28R
$$

AZZ023-010000-
GREATER PHOENIX AREA

CITY           SKY/WX    TMP DP  RH WIND       PRES   REMARKS
PHOENIX        FAIR     105  58  21 SW7       29.74F HX 105
GLENDALE       MOSUNNY  104  59  22 E5        29.75F HX 104
LUKE AFB       FAIR     104  60  23 S5        29.73F HX 104
DEER VALLEY    FAIR     102  56  21 SW13      29.77F HX 101
SCOTTSDALE     FAIR     102  54  20 SW10      29.79F HX 100
MESA-FALCON    MOSUNNY  102  57  22 S7        29.77F HX 101
MESA-GATEWAY   MOSUNNY  102  57  22 W8        29.79F HX 101
CHANDLER       MOSUNNY  102  59  24 W8        29.76  HX 102
$$

AZZ027-028-010000-
SOUTHWEST MARICOPA COUNTY AND PINAL COUNTY

CITY           SKY/WX    TMP DP  RH WIND       PRES   REMARKS
CASA GRANDE    FAIR     104  57  21 CALM      29.77F HX 103
$$

AZZ503-504-507>509-010000-
SOUTHEAST ARIZONA

CITY           SKY/WX    TMP DP  RH WIND       PRES   REMARKS
TUCSON         FAIR      97  57  26 SW7       29.91F
NOGALES        FAIR      84  63  49 W3        30.03F
SAFFORD        FAIR      94  53  25 CALM      29.91F
$$

AZZ020-021-025-026-031-010000-
SOUTHWEST ARIZONA

CITY           SKY/WX    TMP DP  RH WIND       PRES   REMARKS
YUMA           NOT AVBL
$$

CAZ031-033-041-043-047-048-061-010000-
SOUTHERN CALIFORNIA

CITY           SKY/WX    TMP DP  RH WIND       PRES   REMARKS
DOWNTOWN L.A.  FAIR      80  62  54 VRB3      29.85F
L.A. AIRPORT   FAIR      75  63  66 SW13      29.87F
SAN DIEGO      FAIR      74  62  66 SW8       29.88F
BURBANK        FAIR      85  58  39 S9        29.86F
ONTARIO        FAIR      89  55  31 W15       29.85F
RIVERSIDE      FAIR      89  59  36 W12G21    29.83F
PALM SPRINGS   FAIR     105  40  11 N14G24    29.72F
EL CENTRO NAS  FAIR     107  47  13 SE7G17    29.68F HX 103
IMPERIAL       FAIR     106  52  16 W6        29.66F HX 103
BLYTHE         FAIR     106  59  21 S13G21    29.69F HX 106
$$

NVZ020-UTZ003-010000-
SOUTHERN NEVADA-UTAH

CITY           SKY/WX    TMP DP  RH WIND       PRES   REMARKS
LAS VEGAS      NOT AVBL
SALT LAKE CITY FAIR      86  40  19 NW9       29.98F
$$

NMZ009-TXZ055-010000-
NEW MEXICO-WEST TEXAS

CITY           SKY/WX    TMP DP  RH WIND       PRES   REMARKS
ALBUQUERQUE    PTSUNNY   87  44  22 SW17G25   30.08S THUNDER
EL PASO        MOSUNNY   96  43  16 S6        29.97F
$$


........................KEY........................
SKY/WX - SKY CONDITION/WEATHER
TMP    - TEMPERATURE IN FAHRENHEIT
DP     - DEW POINT IN FAHRENHEIT
RH     - RELATIVE HUMIDITY IN PERCENT
WIND   - DIRECTION AND SPEED IN MILES PER HOUR (MPH)
VRB    - VARIABLE WIND DIRECTION
PRES   - MEAN SEA LEVEL PRESSURE IN INCHES OF MERCURY
         F - FALLING PRESSURE   R - RISING PRESSURE
         S - STEADY PRESSURE
VSB    - VISIBILITY IN MILES
HX     - HEAT INDEX IN FAHRENHEIT
WCI    - WIND CHILL INDEX IN FAHRENHEIT
TC     - TEMPERATURE IN CELSIUS WHICH IS ALSO KNOWN AS
         TEMPERATURE IN CENTIGRADE
AFB    - AIR FORCE BASE
         LUKE AFB IS LUKE AIR FORCE BASE
         DAVIS-MONTHAN IS DAVIS-MONTHAN AIR FORCE BASE
NAS    - NAVAL AIR STATION
         EL CENTRO NAS IS EL CENTRO NAVAL AIR STATION
N/A    - NOT AVAILABLE




USA.gov is the U.S. government's official web portal to all federal, state and local government web resources and services.